Location: Unspecified
(33.6682°S, 0.0000°E)
Time: 05:09:55
(UTC+00:00)

Vanguard 1 - Pass Details

Date: 01 July 2019
Orbit: 655 x 3829 km, 34.2° (Epoch: 20 August)

Event Time Altitude Azimuth Distance (km) Brightness Sun altitude
Rises 20:59:04 0° 268° (W) 5,761 14.7 -48.3°
Reaches altitude 10° 21:03:56 10° 283° (WNW) 5,263 14.2 -49.4°
Maximum altitude 21:14:31 20° 323° (NW) 5,289 13.8 -51.5°
Drops below altitude 10° 21:28:07 10° 2° (N) 6,806 14.2 -54.4°
Sets 21:36:15 0° 16° (NNE) 7,952 14.6 -56.0°
